CZ-6A DEB

Satellite information

Favourite Embed

Satellite Type and Status

DEBRISIN ORBIT

Key statistics

Satellite CZ-6A DEB at a glance.

Uptime

395

Days in orbit

Revolutions

≈ 14.6

Per day

Orbit

LEO

Low Earth Orbit

Inclination

88.8

Latest

Satellite identification and parameters

Extended collection of information and parameters for CZ-6A DEB.

Object identification

Identified? True

Debris? True

Object name: CZ-6A DEB

International designator: 2024-140UA

Object number (NORAD): 61313

Object ID (CCSDS): 61313

Country: PEOPLES REPUBLIC OF CHINA (PRC)

Current information (Y/N): Y

RCS size: SMALL

Orbital parameters

Period: 98.713 minutes

Inclination: 88.7764 deg

SMA: 7075.279 km

Apoapsis: 732.506 km

Periapsis: 661.782 km

RAAN: 294.0681 deg

Eccentricy: 0.00499797

Argument of periapsis: 146.8425 deg

Mean anomaly: 213.5937 deg

Mean motion: 14.58772092 rev/day

Mean motion (dot): 0.00029788 rev/day2

B* drag term: 0.0062441403 1/REarth

Two-line elements (TLE)

Creation date: Sept. 3, 2025, 10:15 a.m.

Reference frame: TEME

Reference center: EARTH

Epoch: Sept. 3, 2025, 1:24 a.m. UTC

TLE line 0: 0 CZ-6A DEB

TLE line 1: 1 61313U 24140UA 25246.05864352 .00029788 00000-0 62441-2 0 9990

TLE line 2: 2 61313 88.7764 294.0681 0049980 146.8425 213.5937 14.58772092 54123

Live tracking on map

Real-time ground track for satellite CZ-6A DEB.

In-orbit conjunctions

A list of the most updated potential collisions computed for object CZ-6A DEB.

Target Orbit TCA Probability of collision Miss distance Type
CZ-6A DEB SSO 2025-02-10 08:14:06 0.0007984162 20.0 (m) DEBRIS
FENGYUN 1C DEB SSO 2024-12-26 11:40:53 0.0002459599 889.0 (m) DEBRIS
FENGYUN 1C DEB SSO 2024-12-13 03:35:47 0.0002889406 929.0 (m) DEBRIS
COSMOS 2251 DEB LEO 2024-11-17 10:46:32 0.003384361 37.0 (m) DEBRIS
COSMOS 374 DEB LEO 2024-10-25 21:12:48 0.0002383916 879.0 (m) DEBRIS

Associated space launch

18 Low Earth Orbit communication satellites with Ku, Q and V band payloads for the G60 constellation operated by Shanghai Spacecom Satellite Technology (SSST) with funding backed by the Shanghai local government. Initial constellation will consist of 1296 satellites by 2027 with long term plans to expand it to 12000 satellites.

CZ-6A DEB was lifted into orbit during the mission ‘Long March 6A | G60 Polar Group 01’, on board a Long March 6A space rocket.

The launch took place on Aug. 6, 2024, 6:42 a.m. from Launch Complex 9A.

For more information about the launch, click the button.

Launch to space Long March 6A | G60 Polar Group 01
Long March 6A | G60 Polar Group 01

Agency: N/A

Status: Launch Successful

Launch date: Aug. 6, 2024, 6:42 a.m. UTC

Rocket: Long March 6A

Launch pad: Launch Complex 9A

Location: Taiyuan Satellite Launch Center, People's Republic of China

...

Latest news about this satellite

News about space launch
Brightness of first Chinese broadband constellation satellites alarms astronomers

The first satellites of a Chinese broadband constellation are significantly brighter than those of Western systems, posing a new challenge for astronomers.

News about space launch
Chinese rocket stage breaks up into cloud of more than 700 pieces of space debris

HELSINKI — A Chinese Long March 6A rocket’s upper stage has fragmented into a cloud of over 700 pieces of space debris, adding to concerns about long-term orbital safety. China […]

News about space launch
China's Thousand Sails Megaconstellation Kicks Off with Dangerous Debris Field

China's Thousand Sails Megaconstellation Kicks Off with Dangerous Debris Field


Newsletter sign-up

Weekly statistics, charts and insights to help you stay on top of the space industry.